Погода в Тюрлеме

Россия / Чувашская Республика     55°45′43″N   48°13′18″E
темп.,
°C
ветер,
м/с
пор.,
м/с
влажн.,
%
обл.,
%
осадки,
мм/ч
давл.,
гПа
погр.,
м
16 мая, вс
вс1600:00+17ю496866 0.0 1015139
03:00+16ю356699 0.0 101673
06:00+18ю4116610 0.0 1015257
09:00+24ююз611505 0.0 1015545
12:00+28ююз7134038 0.0 10152031
15:00+27ююз7114168 0.0 10151625
18:00+24зюз245927 0.0 101584
21:00+18з227597 0.0 101612
17 мая, пн
пн1700:00+17з118236 0.0 101611
03:00+16юз0184100 0.0 101711
06:00+19сз117782 0.0 101784
09:00+24юз01599 0.0 1018473
12:00+27ююз234689 0.0 10171116
15:00+28юз24405 0.0 10171402
18:00+26с225440 0.0 101724
21:00+21ссв226876 0.0 101714
18 мая, вт
вт1800:00+18ссз227114 1.0 101812
03:00+17всв228269 1.0 101817
06:00+19вюв127796 0.0 1018112
09:00+24в3360100 0.0 1018439
12:00+28вюв334529 0.0 10181290
15:00+29юв343764 0.0 10182807
18:00+25юв345611 0.0 101781
21:00+19всв4108210 0.1 1018167
19 мая, ср
ср1900:00+17в36835 0.1 1018109
03:00+16вюв411806 0.1 1019238
06:00+18вюв411765 0.0 1019321
09:00+23вюв69575 0.0 1018576
12:00+25вюв78475 0.0 1018942
15:00+25вюв67465 0.0 10181109
18:00+22вюв510571 0.0 1017325
21:00+18в514654 0.0 1016282
20 мая, чт
чт2000:00+16вюв4137518 0.0 1016233
03:00+17юв613700 0.0 1014381
06:00+17юв614713 0.0 1014614
09:00+20ююв686899 0.0 1014737
12:00+21ю91265100 0.3 10151522
15:00+17ююв61073100 0.4 1016598
18:00+18ююв6117252 0.6 1015639
21:00+15ю378140 1.1 1014117